Precipitable_Water
0.63 0.70 0.86 0.95 0.99 1.06 1.06 1.09 1.14 1.17 1.22 1.28 1.36 1.42 1.43 1.45 1.43 1.38 1.33 1.28 1.25 1.20 1.17 1.14 1.09 1.08 0.96 0.81 0.74 0.74 0.68 0.59 0.49 0.52 0.57 0.59 0.59 0.57 0.56 0.55 0.53 0.50 0.49
0.80 0.76 0.74 0.84 0.92 0.97 1.00 1.05 1.11 1.11 1.18 1.22 1.28 1.34 1.36 1.35 1.32 1.28 1.26 1.22 1.17 1.10 1.07 1.06 1.04 1.06 0.93 0.73 0.72 0.71 0.63 0.59 0.52 0.49 0.55 0.56 0.58 0.58 0.54 0.51 0.49 0.49 0.49
0.79 0.83 0.80 0.80 0.88 0.93 0.99 1.06 1.05 1.10 1.13 1.19 1.22 1.28 1.27 1.25 1.23 1.24 1.25 1.14 1.11 1.08 1.08 1.07 0.97 0.90 0.77 0.73 0.70 0.63 0.60 0.58 0.56 0.53 0.53 0.59 0.57 0.55 0.51 0.50 0.48 0.47 0.48
0.74 0.79 0.83 0.88 0.91 0.95 0.96 0.98 1.01 1.05 1.08 1.14 1.21 1.26 1.25 1.22 1.19 1.21 1.15 1.03 1.02 1.11 1.02 1.04 0.99 0.79 0.70 0.65 0.64 0.62 0.61 0.58 0.57 0.56 0.56 0.56 0.52 0.52 0.49 0.43 0.40 0.45 0.43
0.70 0.73 0.78 0.90 0.98 0.95 0.89 0.91 0.92 0.99 1.04 1.11 1.19 1.21 1.19 1.18 1.16 1.11 1.04 1.00 1.03 0.98 0.99 0.89 0.81 0.69 0.66 0.68 0.61 0.60 0.60 0.60 0.59 0.57 0.53 0.50 0.47 0.46 0.43 0.43 0.40 0.41 0.43
0.69 0.73 0.79 0.85 0.94 0.99 0.98 0.96 0.96 0.98 1.03 1.13 1.16 1.15 1.12 1.12 1.12 1.13 1.07 0.98 0.95 0.95 0.94 0.78 0.73 0.68 0.65 0.61 0.60 0.60 0.61 0.60 0.56 0.52 0.49 0.46 0.46 0.46 0.45 0.41 0.40 0.37 0.33
0.67 0.72 0.79 0.80 0.90 0.96 1.03 1.02 1.01 1.01 1.10 1.10 1.10 1.11 1.11 1.12 1.15 1.10 1.01 0.98 0.95 0.85 0.78 0.72 0.66 0.66 0.66 0.62 0.58 0.59 0.57 0.55 0.56 0.55 0.48 0.48 0.45 0.47 0.42 0.39 0.40 0.39 0.38
0.64 0.68 0.77 0.80 0.84 0.94 1.01 1.03 1.06 1.08 1.08 1.08 1.11 1.13 1.09 1.11 1.11 1.04 1.00 0.97 0.82 0.81 0.74 0.66 0.67 0.67 0.64 0.60 0.61 0.57 0.56 0.59 0.58 0.55 0.54 0.52 0.51 0.49 0.44 0.42 0.40 0.41 0.43
0.57 0.63 0.70 0.79 0.79 0.87 0.97 1.05 1.06 1.08 1.09 1.08 1.12 1.10 1.07 1.08 1.08 1.02 0.99 0.87 0.80 0.74 0.68 0.71 0.70 0.65 0.63 0.61 0.59 0.57 0.57 0.57 0.58 0.57 0.55 0.53 0.52 0.49 0.45 0.41 0.37 0.35 0.33
0.52 0.58 0.67 0.74 0.80 0.81 0.90 1.02 1.07 1.07 1.07 1.09 1.10 1.13 1.12 1.08 1.05 1.01 0.90 0.82 0.73 0.65 0.70 0.67 0.66 0.67 0.61 0.58 0.60 0.57 0.53 0.53 0.52 0.53 0.53 0.52 0.51 0.47 0.42 0.41 0.38 0.33 0.33
0.51 0.53 0.62 0.71 0.74 0.80 0.87 0.94 1.03 1.02 1.03 1.05 1.09 1.13 1.08 1.05 1.00 0.94 0.88 0.79 0.68 0.67 0.66 0.66 0.64 0.62 0.61 0.61 0.60 0.58 0.53 0.53 0.51 0.52 0.51 0.49 0.46 0.42 0.42 0.41 0.40 0.36 0.33
0.46 0.48 0.54 0.66 0.73 0.76 0.79 0.87 0.91 0.94 0.93 0.96 1.00 1.02 1.00 0.98 0.94 0.91 0.84 0.76 0.74 0.71 0.67 0.67 0.65 0.65 0.63 0.61 0.60 0.55 0.54 0.53 0.51 0.49 0.46 0.43 0.39 0.38 0.38 0.39 0.39 0.39 0.39
0.42 0.42 0.48 0.61 0.66 0.73 0.78 0.78 0.83 0.86 0.90 0.92 0.93 0.90 0.90 0.90 0.90 0.88 0.84 0.78 0.77 0.74 0.73 0.71 0.70 0.65 0.63 0.60 0.56 0.53 0.53 0.52 0.49 0.46 0.43 0.40 0.39 0.39 0.39 0.39 0.40 0.39 0.38
0.39 0.39 0.44 0.52 0.57 0.68 0.78 0.82 0.81 0.81 0.82 0.83 0.86 0.87 0.88 0.85 0.83 0.80 0.76 0.77 0.74 0.73 0.73 0.71 0.67 0.64 0.62 0.57 0.55 0.54 0.53 0.51 0.48 0.44 0.41 0.41 0.42 0.39 0.37 0.37 0.34 0.33 0.32
0.38 0.40 0.43 0.48 0.56 0.62 0.73 0.80 0.80 0.84 0.86 0.85 0.85 0.86 0.84 0.81 0.81 0.80 0.77 0.72 0.73 0.75 0.72 0.68 0.65 0.59 0.55 0.55 0.56 0.54 0.52 0.49 0.45 0.44 0.41 0.39 0.38 0.37 0.34 0.35 0.32 0.31 0.28
0.39 0.37 0.40 0.44 0.50 0.60 0.67 0.70 0.78 0.80 0.83 0.84 0.86 0.87 0.86 0.85 0.80 0.80 0.76 0.76 0.75 0.76 0.70 0.65 0.59 0.56 0.54 0.54 0.52 0.49 0.48 0.46 0.44 0.42 0.39 0.36 0.34 0.32 0.31 0.31 0.31 0.29 0.27
0.45 0.40 0.39 0.43 0.48 0.56 0.62 0.61 0.62 0.71 0.77 0.81 0.85 0.86 0.83 0.86 0.82 0.73 0.77 0.78 0.72 0.70 0.65 0.59 0.56 0.55 0.53 0.51 0.49 0.47 0.45 0.43 0.42 0.38 0.35 0.33 0.32 0.30 0.29 0.28 0.29 0.28 0.27
0.53 0.45 0.42 0.45 0.50 0.54 0.59 0.61 0.68 0.67 0.67 0.69 0.77 0.78 0.76 0.75 0.74 0.73 0.74 0.72 0.66 0.65 0.61 0.57 0.55 0.53 0.51 0.49 0.48 0.45 0.43 0.41 0.38 0.34 0.32 0.31 0.31 0.29 0.28 0.28 0.27 0.26 0.26
0.56 0.47 0.45 0.52 0.53 0.59 0.62 0.62 0.67 0.70 0.69 0.71 0.73 0.70 0.70 0.72 0.75 0.74 0.70 0.66 0.62 0.59 0.58 0.55 0.52 0.51 0.50 0.48 0.46 0.44 0.41 0.37 0.34 0.32 0.31 0.30 0.30 0.29 0.27 0.27 0.26 0.26 0.26
0.53 0.51 0.53 0.52 0.55 0.60 0.61 0.61 0.63 0.65 0.68 0.68 0.68 0.68 0.70 0.69 0.65 0.64 0.64 0.61 0.59 0.57 0.54 0.51 0.50 0.50 0.48 0.46 0.43 0.39 0.35 0.33 0.32 0.31 0.29 0.29 0.28 0.28 0.27 0.27 0.27 0.26 0.26
0.52 0.53 0.50 0.51 0.55 0.61 0.61 0.59 0.61 0.65 0.66 0.67 0.68 0.70 0.69 0.65 0.61 0.62 0.62 0.59 0.58 0.54 0.52 0.50 0.50 0.48 0.45 0.41 0.37 0.34 0.32 0.30 0.30 0.28 0.27 0.27 0.27 0.27 0.28 0.28 0.28 0.27 0.27
0.56 0.53 0.51 0.57 0.62 0.60 0.60 0.61 0.62 0.62 0.65 0.64 0.64 0.64 0.64 0.62 0.61 0.59 0.56 0.55 0.53 0.52 0.52 0.50 0.46 0.42 0.39 0.36 0.32 0.31 0.29 0.27 0.27 0.26 0.26 0.26 0.27 0.27 0.28 0.28 0.28 0.27 0.27
0.57 0.58 0.60 0.59 0.59 0.59 0.59 0.61 0.60 0.61 0.60 0.60 0.59 0.58 0.58 0.59 0.58 0.57 0.54 0.53 0.52 0.50 0.47 0.43 0.40 0.37 0.35 0.32 0.32 0.29 0.27 0.26 0.26 0.27 0.25 0.26 0.27 0.27 0.28 0.27 0.27 0.27 0.26
0.58 0.57 0.58 0.58 0.57 0.56 0.59 0.58 0.59 0.59 0.60 0.59 0.58 0.57 0.57 0.57 0.55 0.53 0.52 0.50 0.46 0.43 0.40 0.38 0.35 0.31 0.30 0.28 0.28 0.27 0.27 0.27 0.27 0.26 0.27 0.26 0.26 0.26 0.26 0.26 0.26 0.26 0.26
0.56 0.56 0.56 0.56 0.56 0.56 0.56 0.56 0.56 0.56 0.56 0.56 0.55 0.55 0.55 0.53 0.51 0.48 0.46 0.43 0.40 0.38 0.35 0.33 0.31 0.29 0.27 0.25 0.25 0.24 0.23 0.23 0.25 0.26 0.27 0.26 0.25 0.24 0.24 0.24 0.24 0.25 0.25
0.55 0.55 0.55 0.55 0.55 0.55 0.55 0.54 0.54 0.54 0.53 0.53 0.53 0.51 0.49 0.47 0.44 0.42 0.40 0.38 0.35 0.32 0.31 0.29 0.26 0.24 0.23 0.22 0.22 0.22 0.22 0.21 0.23 0.24 0.25 0.23 0.22 0.22 0.22 0.22 0.22 0.23 0.23
Wind_Speed
40 41 41 41 41 40 39 39 39 37 37 37 37 38 38 37 36 35 33 31 30 29 30 30 29 28 27 26 27 27 29 30 32 33 34 36 38 39 39 39 38 37 36
38 40 41 42 43 44 43 41 39 38 37 37 38 39 39 38 37 35 33 31 30 30 29 28 28 29 25 27 27 28 29 30 32 34 35 36 37 39 38 37 36 35 34
38 40 41 41 44 45 45 44 42 42 41 41 40 40 39 38 36 34 32 31 30 29 28 28 25 24 27 27 27 29 30 31 32 34 35 36 38 37 36 35 35 33 32
36 37 39 40 41 42 42 43 43 44 44 42 41 40 38 37 35 34 32 30 29 28 28 28 28 28 28 28 29 30 31 32 33 35 36 37 37 35 36 35 34 32 31
34 35 37 38 38 39 40 41 41 41 41 40 39 38 37 36 34 32 31 30 28 27 26 27 27 27 27 28 30 31 32 33 34 35 35 36 35 34 34 33 32 31 30
35 35 36 36 37 37 37 38 39 38 38 38 37 37 36 35 34 32 31 29 28 27 27 27 27 27 28 30 30 31 31 33 33 34 35 34 32 32 32 31 30 29 27
34 35 35 35 36 36 36 37 38 39 39 38 37 36 35 34 34 32 29 28 27 27 27 27 27 28 28 29 30 31 32 32 33 33 32 30 30 30 29 28 28 28 28
33 33 34 35 35 34 35 36 36 37 38 37 37 36 35 34 33 31 30 28 27 27 27 27 28 28 28 29 30 30 31 32 32 30 30 29 29 29 29 29 29 29 29
35 33 33 34 34 34 34 35 37 38 37 37 36 36 35 34 33 31 30 28 27 27 27 27 27 27 28 29 29 30 32 32 30 29 29 29 29 28 28 28 27 27 27
38 37 35 35 35 34 34 35 37 38 37 37 37 36 35 34 34 32 30 29 28 27 27 27 27 27 27 28 29 31 31 30 29 28 28 27 28 27 26 26 26 26 26
42 40 39 38 36 36 36 36 36 38 38 38 37 36 35 34 33 33 31 30 29 28 27 27 27 27 27 28 30 30 30 29 28 28 27 27 27 26 25 24 24 24 24
46 44 42 41 39 36 37 39 39 39 38 37 37 36 36 35 34 33 32 31 30 29 28 28 27 26 27 29 29 28 28 27 27 27 26 25 25 24 23 23 23 23 24
46 47 45 43 41 40 38 38 40 41 40 38 38 37 37 35 35 34 33 31 30 28 28 27 26 26 28 28 27 26 25 25 25 25 24 23 23 23 22 22 22 23 24
49 47 46 44 42 42 40 39 39 41 42 41 41 40 39 37 37 36 34 32 30 28 26 25 26 27 26 25 24 24 25 24 24 23 22 22 21 20 20 21 21 22 23
50 48 46 45 46 43 42 40 40 39 39 39 40 40 39 38 37 36 35 31 28 26 25 24 25 25 25 24 25 24 24 23 22 21 20 20 19 19 19 20 21 22 23
49 49 48 47 45 45 43 41 40 40 39 38 37 37 36 36 35 33 32 25 24 22 23 24 25 24 24 24 23 22 21 20 19 19 18 17 18 18 19 20 21 22 23
46 48 48 47 46 45 44 43 39 38 38 38 37 36 34 31 31 26 27 25 23 24 24 24 23 23 22 22 21 20 19 18 17 16 16 16 17 18 19 20 21 22 23
41 44 46 45 45 45 44 42 41 40 39 37 37 35 34 33 32 30 27 22 23 24 23 22 22 21 21 19 18 17 16 15 15 15 15 16 17 18 19 20 21 21 21
37 38 42 42 41 41 41 41 40 40 38 36 35 33 32 32 30 29 28 27 25 23 22 21 21 19 18 17 16 15 14 14 14 14 15 16 17 18 19 19 19 19 20
31 33 37 39 37 37 38 38 38 38 37 36 35 33 32 31 28 28 26 25 24 21 20 19 18 17 16 14 14 13 13 13 13 14 15 16 17 17 17 18 18 18 17
25 28 34 33 33 34 35 35 34 35 35 33 32 32 31 29 26 24 23 21 20 20 18 17 16 15 14 13 12 12 13 13 13 14 15 16 16 16 16 16 16 15 13
21 25 28 28 30 31 32 33 33 34 33 32 31 29 28 26 26 23 21 19 18 17 16 15 13 12 11 11 11 11 11 12 13 13 14 14 15 15 14 14 12 11 8
21 22 24 25 26 28 29 30 31 32 31 30 29 28 25 23 22 20 18 17 16 15 14 13 11 10 10 9 9 10 11 11 12 12 12 12 13 12 11 10 8 7 6
19 20 20 21 22 20 24 31 30 30 29 27 26 24 23 21 20 18 17 16 14 13 12 11 10 9 8 8 8 9 9 10 10 10 11 11 10 9 7 6 5 4 3
19 20 20 21 21 22 23 25 26 27 25 24 23 21 20 20 18 17 16 15 14 13 11 10 9 8 7 6 6 7 7 8 9 9 9 8 6 5 4 4 3 2 1
18 18 20 19 20 21 22 22 24 24 23 22 21 20 20 19 18 17 16 15 14 12 10 9 7 6 5 5 5 5 6 7 7 6 5 3 2 2 2 2 1 1 2
Wind_Direction
248 247 247 247 246 246 245 245 244 244 245 246 246 244 245 246 248 252 255 258 260 262 264 263 265 266 264 270 277 280 286 289 292 297 301 305 308 312 313 314 315 315 315
248 249 250 249 247 246 246 245 244 243 244 246 246 246 245 245 247 249 251 255 259 261 261 261 265 266 259 272 277 282 286 290 294 297 301 304 307 310 311 312 314 316 315
250 250 251 252 249 247 246 245 245 245 246 247 247 245 243 243 244 246 248 254 257 258 258 257 261 257 268 274 278 284 287 291 294 298 301 304 307 308 309 311 312 313 315
252 253 252 252 251 248 246 245 245 246 246 246 244 242 241 240 242 244 248 253 255 256 258 256 258 265 269 274 280 284 288 291 295 298 301 303 305 307 308 308 309 311 312
255 254 253 252 252 249 246 244 244 243 244 242 239 237 237 238 239 241 247 252 250 254 254 255 260 266 271 276 282 286 288 291 295 298 300 302 303 305 308 309 308 309 311
256 256 254 252 251 249 245 243 241 241 239 234 233 233 234 237 237 240 245 248 251 251 254 257 263 266 273 278 283 287 291 293 295 298 299 300 302 304 307 308 308 309 310
256 255 254 252 250 249 245 242 240 238 233 232 232 232 233 235 235 239 243 246 249 251 254 259 264 270 275 280 283 288 290 293 295 297 297 298 301 304 305 306 307 307 307
256 255 252 251 249 247 244 241 238 233 230 230 230 230 232 235 233 237 241 246 249 253 257 262 267 271 276 280 284 288 291 294 295 294 294 296 299 302 301 302 302 304 306
254 254 253 250 248 245 243 239 235 232 231 229 228 230 232 233 233 236 240 245 250 254 260 264 269 272 277 281 285 289 292 294 294 292 294 295 298 299 299 301 302 304 305
253 252 251 250 247 244 241 237 234 231 230 230 230 232 232 232 233 236 241 246 250 256 260 265 269 274 276 281 286 290 291 292 293 292 292 293 296 297 298 300 301 302 305
251 251 251 249 246 243 239 235 233 232 230 231 231 231 231 231 234 237 243 248 251 254 259 264 269 273 277 283 289 291 291 291 290 292 292 293 295 295 296 299 300 302 304
250 250 250 248 243 242 238 235 232 231 230 230 229 231 233 234 236 240 245 247 250 255 260 265 268 272 278 285 289 290 290 289 290 292 292 293 295 294 296 297 299 302 305
248 248 248 245 241 239 237 234 232 231 230 230 229 230 234 237 239 239 243 247 250 256 261 263 266 273 281 286 288 288 288 289 291 291 292 293 293 294 295 297 299 301 304
248 246 244 240 238 236 235 232 231 230 231 231 233 235 236 239 239 241 243 245 250 254 256 261 268 277 282 284 285 287 288 289 289 290 290 291 292 293 295 298 301 304 305
247 242 240 238 234 233 232 231 230 230 230 231 233 234 235 237 238 238 238 241 244 247 256 261 271 275 278 280 284 286 287 288 288 288 287 289 291 293 297 300 303 305 307
244 240 237 236 233 231 229 230 230 230 229 231 231 232 234 234 230 231 225 228 239 241 256 266 272 275 278 279 281 282 285 285 285 285 286 288 292 295 298 302 304 306 308
244 237 234 232 229 227 227 226 226 226 226 226 226 226 227 217 216 226 226 235 242 253 261 267 271 273 276 278 278 279 279 280 282 283 286 289 293 295 299 302 305 307 309
240 233 229 228 226 225 224 224 223 223 224 224 224 223 225 225 227 233 234 231 246 259 262 265 268 270 272 273 272 273 274 276 280 284 288 291 295 298 301 304 307 309 311
233 229 223 220 220 221 221 221 221 221 221 220 218 220 222 222 223 231 236 246 251 257 256 260 264 265 265 266 267 267 271 276 281 285 290 293 297 300 303 306 309 311 313
223 221 213 212 214 216 215 215 215 216 215 215 216 217 217 220 226 227 240 243 248 249 252 257 257 257 258 259 260 267 272 276 281 286 291 295 299 302 305 307 309 312 314
213 208 203 206 210 209 208 208 209 209 209 210 211 211 211 218 226 224 230 239 240 240 248 249 250 248 248 254 260 266 272 277 283 288 293 297 301 304 306 308 310 313 315
188 189 194 197 197 200 203 204 205 204 204 205 206 205 210 218 219 226 228 232 234 236 239 237 235 237 243 254 259 264 272 279 286 292 296 300 303 305 306 309 312 315 317
174 179 182 186 189 193 195 195 194 193 195 197 197 199 203 208 211 214 217 219 223 224 222 222 225 232 239 248 258 268 277 285 290 295 299 303 305 307 309 311 313 316 319
155 165 169 165 173 171 180 181 179 181 182 189 193 196 198 200 203 207 210 209 208 206 206 212 218 226 235 248 262 273 284 290 295 297 301 304 307 308 310 313 317 320 323
148 154 161 160 162 162 162 165 173 174 178 182 188 191 192 194 198 196 197 196 195 198 200 205 212 220 235 251 267 279 288 295 299 302 305 308 311 314 320 325 329 336 7
147 149 148 152 157 160 163 166 169 173 178 181 183 183 184 184 186 188 188 188 188 191 195 200 206 217 233 250 267 282 294 302 305 307 310 314 319 334 348 7 35 66 98